BG5HLN-13 Weather Reports


time (UTC)temp
C
wind
direction
speed
KPH
gust
KPH
rain 1hr
cm
rain 24hr
cm
rain mn
cm
humidity
%
barometer
mb
20260509070006 25 0 0.0 0.0 0.00 0.00 0.00 55 1016.5
20260509065007 25 0 0.0 0.0 0.00 0.00 0.00 52 1016.5
20260509064006 25 0 0.0 0.0 0.00 0.00 0.00 52 1016.6
20260509063006 25 0 0.0 0.0 0.00 0.00 0.00 52 1016.8
20260509062007 25 0 0.0 0.0 0.00 0.00 0.00 52 1017.0
20260509061006 25 0 0.0 0.0 0.00 0.00 0.00 51 1017.1
20260509060006 25 0 0.0 0.0 0.00 0.00 0.00 50 1017.2
20260509055007 25 0 0.0 0.0 0.00 0.00 0.00 49 1017.4
20260509054006 25 0 0.0 0.0 0.00 0.00 0.00 49 1017.5
20260509053007 26 270 0.0 0.0 0.00 0.00 0.00 50 1017.5
20260509052006 25 315 0.0 0.0 0.00 0.00 0.00 49 1017.7
20260509051006 25 0 0.0 0.0 0.00 0.00 0.00 48 1017.9
20260509050006 25 0 0.0 0.0 0.00 0.00 0.00 49 1018.1
20260509045005 25 0 0.0 0.0 0.00 0.00 0.00 49 1018.3
20260509044006 25 0 0.0 0.0 0.00 0.00 0.00 50 1018.5
20260509043006 25 0 0.0 0.0 0.00 0.00 0.00 50 1018.7
20260509042006 24 0 0.0 0.0 0.00 0.00 0.00 51 1018.8
20260509041005 24 0 0.0 0.0 0.00 0.00 0.00 52 1019.0
20260509040006 24 315 0.0 0.0 0.00 0.00 0.00 55 1019.3
20260509035006 23 0 0.0 0.0 0.00 0.00 0.00 57 1019.5
20260509034005 23 270 0.0 0.0 0.00 0.00 0.00 57 1019.6
20260509032005 23 0 0.0 0.0 0.00 0.00 0.00 56 1019.9
20260509031005 23 0 0.0 0.0 0.00 0.00 0.00 59 1020.0
20260509030005 22 0 0.0 0.0 0.00 0.00 0.00 59 1020.1
20260509025005 22 0 0.0 0.0 0.00 0.00 0.00 62 1020.0
20260509024006 22 270 0.0 0.0 0.00 0.00 0.00 63 1020.1
20260509023005 22 0 0.0 0.0 0.00 0.00 0.00 61 1020.1
20260509022005 21 270 0.0 0.0 0.00 0.00 0.00 60 1020.3
20260509021004 21 0 0.0 0.0 0.00 0.00 0.00 59 1020.4
20260509020005 21 0 0.0 0.0 0.00 0.00 0.00 61 1020.5
20260509015005 21 0 0.0 0.0 0.00 0.00 0.00 61 1020.6
20260509014005 21 270 0.0 0.0 0.00 0.00 0.00 61 1020.7
20260509013006 21 0 0.0 0.0 0.00 0.00 0.00 60 1020.9
20260509012005 20 0 0.0 0.0 0.00 0.00 0.00 62 1020.8
20260509011005 21 0 0.0 0.0 0.00 0.00 0.00 59 1020.8
20260509010004 21 0 0.0 0.0 0.00 0.00 0.00 58 1020.9
20260509005005 20 0 0.0 0.0 0.00 0.00 0.00 57 1020.8
20260509004004 20 270 0.0 0.0 0.00 0.00 0.00 57 1020.8
20260509003005 20 0 0.0 0.0 0.00 0.00 0.00 60 1020.6
20260509002005 20 0 0.0 0.0 0.00 0.00 0.00 60 1020.5
20260509001004 20 0 0.0 0.0 0.00 0.00 0.00 59 1020.5
20260509000005 20 0 0.0 0.0 0.00 0.00 0.00 60 1020.3
20260508235004 20 0 0.0 0.0 0.00 0.00 0.00 61 1020.2
20260508234005 20 0 0.0 0.0 0.00 0.00 0.00 59 1020.1
20260508233005 20 0 0.0 0.0 0.00 0.00 0.00 59 1020.1
20260508232004 20 0 0.0 0.0 0.00 0.00 0.00 59 1019.9
20260508231005 20 0 0.0 0.0 0.00 0.00 0.00 61 1019.9
20260508230004 19 0 0.0 0.0 0.00 0.00 0.00 62 1020.0
20260508225004 19 270 0.0 0.0 0.00 0.00 0.00 61 1019.9
20260508224004 19 0 0.0 0.0 0.00 0.00 0.00 62 1020.0
20260508223005 19 270 0.0 0.0 0.00 0.00 0.00 63 1020.1
20260508222004 19 0 0.0 0.0 0.00 0.00 0.00 65 1020.2
20260508221004 19 0 0.0 0.0 0.00 0.00 0.00 65 1020.0
20260508220004 19 0 0.0 0.0 0.00 0.00 0.00 66 1020.0
20260508215004 19 0 0.0 0.0 0.00 0.00 0.00 66 1020.0
20260508214004 18 0 0.0 0.0 0.00 0.00 0.00 66 1019.9
20260508213005 19 0 0.0 0.0 0.00 0.00 0.00 67 1019.7
20260508212004 18 0 0.0 0.0 0.00 0.00 0.00 68 1019.8
20260508211004 19 0 0.0 0.0 0.00 0.00 0.00 69 1019.7
20260508210007 19 0 0.0 0.0 0.00 0.00 0.00 68 1019.5
20260508210004 19 0 0.0 0.0 0.00 0.00 0.00 68 1019.5
20260508205004 19 0 0.0 0.0 0.00 0.00 0.00 68 1019.5
20260508204005 19 0 0.0 0.0 0.00 0.00 0.00 67 1019.5
20260508203003 18 0 0.0 0.0 0.00 0.00 0.00 68 1019.3
20260508202004 18 0 0.0 0.0 0.00 0.00 0.00 68 1019.5
20260508201004 18 270 0.0 0.0 0.00 0.00 0.00 68 1019.4
20260508200004 18 270 0.0 0.0 0.00 0.00 0.00 67 1019.5
20260508195004 19 0 0.0 0.0 0.00 0.00 0.00 66 1019.4
20260508194003 19 270 0.0 0.0 0.00 0.00 0.00 66 1019.6
20260508193004 19 0 0.0 0.0 0.00 0.00 0.00 63 1019.4
20260508192003 19 270 0.0 0.0 0.00 0.00 0.00 66 1019.4
20260508191003 19 270 0.0 0.0 0.00 0.00 0.00 64 1019.5
20260508190006 19 270 0.0 0.0 0.00 0.00 0.00 64 1019.3
20260508190004 19 0 0.0 0.0 0.00 0.00 0.00 64 1019.3
20260508185003 19 270 0.0 0.0 0.00 0.00 0.00 63 1019.4
20260508184004 19 270 0.0 0.0 0.00 0.00 0.00 64 1019.4
20260508183004 19 0 0.0 0.0 0.00 0.00 0.00 64 1019.5
20260508182003 19 270 0.0 0.0 0.00 0.00 0.00 65 1019.4
20260508181003 19 270 0.0 0.0 0.00 0.00 0.00 63 1019.4
20260508180003 19 0 0.0 0.0 0.00 0.00 0.00 63 1019.6
20260508175003 19 270 0.0 0.0 0.00 0.00 0.00 63 1019.7
20260508174003 19 270 0.0 0.0 0.00 0.00 0.00 64 1019.7
20260508173003 19 0 0.0 0.0 0.00 0.00 0.00 63 1019.6
20260508172003 20 0 0.0 0.0 0.00 0.00 0.00 62 1019.6
20260508171002 20 0 0.0 0.0 0.00 0.00 0.00 61 1020.0
20260508170003 20 0 0.0 0.0 0.00 0.00 0.00 62 1019.9
20260508165004 20 0 0.0 0.0 0.00 0.00 0.00 61 1020.0
20260508164002 20 0 0.0 0.0 0.00 0.00 0.00 60 1020.0
20260508163003 20 270 0.0 0.0 0.00 0.00 0.00 59 1019.8
20260508162002 20 0 0.0 0.0 0.00 0.00 0.00 59 1020.1
20260508161002 20 315 0.0 0.0 0.00 0.00 0.00 59 1020.1
20260508160003 20 0 0.0 0.0 0.00 0.00 0.00 59 1020.1
20260508155002 20 0 0.0 0.0 0.00 0.00 0.00 60 1020.2
20260508154002 20 0 0.0 0.0 0.00 0.00 0.00 60 1020.2
20260508153003 20 0 0.0 0.0 0.00 0.00 0.00 61 1020.5
20260508152002 20 270 0.0 0.0 0.00 0.00 0.00 61 1020.3
20260508151002 20 0 0.0 0.0 0.00 0.00 0.00 61 1020.4
20260508150003 20 0 0.0 0.0 0.00 0.00 0.00 61 1020.6
20260508145002 20 270 0.0 0.0 0.00 0.00 0.00 61 1020.7
20260508144002 20 0 0.0 0.0 0.00 0.00 0.00 61 1020.9
20260508143002 20 0 0.0 0.0 0.00 0.00 0.00 60 1021.1
20260508142002 20 270 0.0 0.0 0.00 0.00 0.00 60 1021.2
20260508141003 20 315 0.0 0.0 0.00 0.00 0.00 60 1021.3
20260508140001 20 0 0.0 0.0 0.00 0.00 0.00 60 1021.3
20260508135002 20 0 0.0 0.0 0.00 0.00 0.00 60 1021.3
20260508134002 20 0 0.0 0.0 0.00 0.00 0.00 61 1021.2
20260508133002 20 270 0.0 0.0 0.00 0.00 0.00 62 1021.0
20260508132002 20 0 0.0 0.0 0.00 0.00 0.00 62 1020.8
20260508131002 20 0 0.0 0.0 0.00 0.00 0.00 63 1020.6
20260508130002 20 270 0.0 0.0 0.00 0.00 0.00 63 1020.3
20260508125001 20 270 0.0 0.0 0.00 0.00 0.00 62 1020.1
20260508124002 20 0 0.0 0.0 0.00 0.00 0.00 62 1020.2
20260508123002 20 0 0.0 0.0 0.00 0.00 0.00 62 1020.2
20260508122001 20 315 0.0 0.0 0.00 0.00 0.00 62 1020.3
20260508121002 20 0 0.0 0.0 0.00 0.00 0.00 62 1020.0
20260508120001 20 0 0.0 0.0 0.00 0.00 0.00 61 1020.2
20260508115002 21 0 0.0 0.0 0.00 0.00 0.00 60 1020.2
20260508114001 21 0 0.0 0.0 0.00 0.00 0.00 60 1020.3
20260508113001 21 0 0.0 0.0 0.00 0.00 0.00 60 1020.2
20260508112002 21 0 0.0 0.0 0.00 0.00 0.00 59 1020.2
20260508111001 21 0 0.0 0.0 0.00 0.00 0.00 60 1020.0
20260508110002 21 0 0.0 0.0 0.00 0.00 0.00 59 1019.9
20260508105002 21 0 0.0 0.0 0.00 0.00 0.00 60 1019.8
20260508104001 21 0 0.0 0.0 0.00 0.00 0.00 59 1019.8
20260508103002 21 0 0.0 0.0 0.00 0.00 0.00 59 1020.0
20260508102001 21 0 0.0 0.0 0.00 0.00 0.00 58 1019.7
20260508101001 21 270 0.0 0.0 0.00 0.00 0.00 57 1019.6
20260508100001 22 0 0.0 0.0 0.00 0.00 0.00 58 1019.5
20260508095000 22 0 0.0 0.0 0.00 0.00 0.00 57 1019.6
20260508094001 22 0 0.0 0.0 0.00 0.00 0.00 58 1019.4
20260508093002 22 0 0.0 0.0 0.00 0.00 0.00 57 1019.4
20260508092000 22 0 0.0 0.0 0.00 0.00 0.00 56 1019.4
20260508091001 22 0 0.0 0.0 0.00 0.00 0.00 56 1019.3
20260508090000 22 0 0.0 0.0 0.00 0.00 0.00 56 1019.1
20260508085000 22 0 0.0 0.0 0.00 0.00 0.00 56 1019.1
20260508084001 23 0 0.0 0.0 0.00 0.00 0.00 55 1019.2
20260508083001 23 0 0.0 0.0 0.00 0.00 0.00 55 1019.1
20260508082000 23 0 0.0 0.0 0.00 0.00 0.00 57 1019.0
20260508081001 23 0 0.0 0.0 0.00 0.00 0.00 57 1018.9
20260508080003 23 0 0.0 0.0 0.00 0.00 0.00 57 1019.0
20260508080001 23 0 0.0 0.0 0.00 0.00 0.00 57 1019.0
20260508075001 23 0 0.0 0.0 0.00 0.00 0.00 57 1019.1
20260508074000 23 0 0.0 0.0 0.00 0.00 0.00 57 1019.2
20260508073003 23 315 0.0 0.0 0.00 0.00 0.00 56 1019.3
20260508073000 23 0 0.0 0.0 0.00 0.00 0.00 56 1019.3
20260508072001 23 0 0.0 0.0 0.00 0.00 0.00 56 1019.3
20260508071000 23 0 0.0 0.0 0.00 0.00 0.00 55 1019.2